THORAD AGENA D DEB, 4774

Orbit data source: Space-Track

THORAD AGENA D DEB, 4774 is space debris in SSO originally from a launch on Wed, 08 Apr 1970 UTC launched from the Air Force Western Test Range (AFWTR). Debris objects in space refer to the collection of defunct objects orbiting the Earth. Examples of debris include non-operational satellites, rocket bodies, and fragments generated from explosions, collisions, or faulty payload assembly.

Loading next visibility...
Identifier
4774, 1970-025DU
Orbit
SSO
Country
Flag of USUS
Related business
Manufacturer
Unknown
Mission
Spacecraft
Bus & Motor
Unknown
Mass
Unknown
Launch date (UTC)
1970-04-08 (56 years ago)
Launch vehicle
Unknown
Launch site
Air Force Western Test Range (AFWTR)
Object type
Payload
Rocket body
Debris
Shape & HBR
Unknown shape, 0.1 m
Radar Cross Section
Small (<0.1 m²)

Expand to show TLE details & history
Last TLE update: 10 hours ago

TLE from 10 hours ago
0 THORAD AGENA D DEB
1  4774U 70025DU  26126.94117691  .00001335  00000-0  12666-2 0  9996
2  4774  99.7452 260.5043 0042138 208.1296 275.5815 13.82538897784912
Epoch: 2026-05-06T22:35Z
TLE epoch observation values (Epoch: 2026-05-06T22:35:17.685Z)
Latitude
55.62732°
Longitude
-108.64955°
Altitude
961.183 km
Speed
7.378 km/s
True Right ascension
06h 19m 52s
True Declination
55° 28' 17"
Sunlit
Object was in daylight at epoch
Visualization orbit readout
Latitude
Unknown
Longitude
Unknown
Altitude
Unknown
Speed
Unknown
Apparent Right ascension
Unknown
Apparent Declination
Unknown
Sunlit
N/A
Visualization observer readout
Local Sidereal Time
16:19:52
Azimuth
Unknown
Elevation
Unknown
Doppler factor
Unknown
Orbital elements
Apogee altitude
983.044 km
Perigee altitude
921.267 km
Semi-major axis
7,330.293 km
Eccentricity
0.00421
Inclination
99.7452°
RAAN
260.5043°
Arg. of periapsis
208.1296°
True anomaly
275.10068°
Mean anomaly
275.5815°
Eccentric anomaly
275.34112°
Mean motion
3.45829 °/min
Orbital period
104.1 mins
BSTAR
0.0012666
Loading maneuver chart data...
Computing Atmospheric mass density...

Documentation

Showing up to 5 results
|